DW7857 Weather Reports


Display with metric or nautical units.
time (UTC)temp
F
wind
direction
speed
MPH
gust
MPH
rain 1hr
in
rain 24hr
in
rain mn
in
humidity
%
barometer
mb
20260509070003 54 73 4.0 6.0 0.00 0.00 0.00 71 1016.1
20260509065403 54 65 4.0 5.0 0.00 0.00 0.00 71 1015.9
20260509064503 54 51 3.0 4.0 0.00 0.00 0.00 72 1016.3
20260509063812 54 50 3.0 4.0 0.00 0.00 0.00 72 1016.2
20260509062703 53 56 3.0 4.0 0.00 0.00 0.00 74 1016.0
20260509061803 53 54 2.0 3.0 0.00 0.00 0.00 79 1016.0
20260509060926 51 56 2.0 2.0 0.00 0.00 0.00 83 1015.9
20260509060004 49 56 2.0 3.0 0.00 0.00 0.00 85 1015.9
20260509055404 49 49 2.0 3.0 0.00 0.00 0.00 87 1015.7
20260509054712 48 45 2.0 3.0 0.00 0.00 0.00 88 1015.8
20260509053603 47 45 2.0 4.0 0.00 0.00 0.00 89 1015.7
20260509052703 46 45 1.0 2.0 0.00 0.00 0.00 89 1015.5
20260509051810 46 45 0.0 1.0 0.00 0.00 0.00 88 1015.5
20260509050903 45 0 0.0 0.0 0.00 0.00 0.00 92 1015.3
20260509050003 45 45 0.0 1.0 0.00 0.00 0.00 92 1015.5
20260509045613 45 45 1.0 2.0 0.00 0.00 0.00 92 1015.3
20260509044503 45 45 1.0 2.0 0.00 0.00 0.00 91 1015.4
20260509043814 45 45 1.0 2.0 0.00 0.00 0.00 91 1015.6
20260509042703 45 45 0.0 1.0 0.00 0.00 0.00 91 1015.5
20260509041803 45 0 0.0 0.0 0.00 0.00 0.00 90 1015.4
20260509040903 45 45 0.0 1.0 0.00 0.00 0.00 90 1015.6
20260509040003 46 45 0.0 1.0 0.00 0.00 0.00 85 1015.5
20260509035403 46 45 0.0 1.0 0.00 0.00 0.00 84 1015.6
20260509034714 46 0 0.0 0.0 0.00 0.00 0.00 84 1015.4
20260509033603 46 0 0.0 0.0 0.00 0.00 0.00 84 1015.4
20260509032703 46 45 0.0 1.0 0.00 0.00 0.00 83 1015.7
20260509031803 46 45 0.0 1.0 0.00 0.00 0.00 83 1015.7
20260509030903 47 45 0.0 1.0 0.00 0.00 0.00 83 1015.5
20260509030004 46 0 0.0 0.0 0.00 0.00 0.00 82 1015.8
20260509025403 47 45 0.0 1.0 0.00 0.00 0.00 82 1015.6
20260509024503 47 45 1.0 2.0 0.00 0.00 0.00 82 1015.5
20260509023603 47 45 0.0 2.0 0.00 0.00 0.00 82 1015.6
20260509022703 47 0 0.0 0.0 0.00 0.00 0.00 82 1015.4
20260509021803 48 45 0.0 1.0 0.00 0.00 0.00 82 1015.8
20260509020903 48 45 0.0 1.0 0.00 0.00 0.00 83 1015.8
20260509020003 48 45 1.0 2.0 0.00 0.00 0.00 83 1015.8
20260509015403 48 45 0.0 1.0 0.00 0.00 0.00 83 1015.9
20260509014503 49 45 1.0 2.0 0.00 0.00 0.00 83 1015.8
20260509013603 49 45 2.0 2.0 0.00 0.00 0.00 82 1016.0
20260509012703 48 45 1.0 2.0 0.00 0.00 0.00 82 1015.9
20260509012013 48 45 0.0 2.0 0.00 0.00 0.00 81 1015.9
20260509010903 49 45 0.0 2.0 0.00 0.00 0.00 81 1015.6
20260509010003 49 45 0.0 1.0 0.00 0.00 0.00 81 1015.8
20260509005403 49 45 0.0 1.0 0.00 0.00 0.00 81 1015.9
20260509004503 49 0 0.0 0.0 0.00 0.00 0.00 81 1016.0
20260509003603 49 0 0.0 0.0 0.00 0.00 0.00 81 1015.9
20260509002704 49 45 0.0 2.0 0.00 0.00 0.00 81 1015.8
20260509002013 49 0 0.0 0.0 0.00 0.00 0.00 81 1015.8
20260509000903 49 0 0.0 0.0 0.00 0.00 0.00 81 1016.1
20260509000004 49 0 0.0 0.0 0.00 0.00 0.00 80 1016.1
20260508235613 49 45 0.0 1.0 0.00 0.00 0.00 80 1016.0
20260508234503 49 0 0.0 0.0 0.00 0.00 0.00 80 1016.1
20260508233814 49 0 0.0 0.0 0.00 0.00 0.00 80 1015.8
20260508232703 49 0 0.0 0.0 0.00 0.00 0.00 80 1015.9
20260508231803 49 0 0.0 0.0 0.00 0.00 0.00 79 1016.1
20260508230903 49 0 0.0 0.0 0.00 0.00 0.00 79 1016.0
20260508230004 50 45 0.0 1.0 0.00 0.00 0.00 79 1015.8
20260508225613 50 45 0.0 1.0 0.00 0.00 0.00 79 1016.0
20260508224503 50 45 0.0 1.0 0.00 0.00 0.00 78 1015.8
20260508223603 50 45 0.0 1.0 0.00 0.00 0.00 79 1015.9
20260508222703 51 45 0.0 2.0 0.00 0.00 0.00 78 1015.9
20260508221803 51 45 0.0 1.0 0.00 0.00 0.00 77 1016.0
20260508220903 51 45 1.0 2.0 0.00 0.00 0.00 76 1015.9
20260508220003 52 45 0.0 1.0 0.00 0.00 0.00 75 1016.0
20260508215403 52 45 0.0 1.0 0.00 0.00 0.00 75 1016.1
20260508214503 52 0 0.0 0.0 0.00 0.00 0.00 74 1015.7
20260508213614 52 45 0.0 1.0 0.00 0.00 0.00 73 1015.8
20260508212703 52 0 0.0 0.0 0.00 0.00 0.00 73 1015.9
20260508211803 53 45 0.0 1.0 0.00 0.00 0.00 72 1015.9
20260508210903 53 45 0.0 1.0 0.00 0.00 0.00 72 1015.9
20260508210003 53 0 0.0 0.0 0.00 0.00 0.00 71 1015.8
20260508205403 53 0 0.0 0.0 0.00 0.00 0.00 71 1015.8
20260508204503 53 0 0.0 0.0 0.00 0.00 0.00 70 1015.8
20260508203812 54 45 0.0 2.0 0.00 0.00 0.00 70 1015.7
20260508202703 54 63 0.0 2.0 0.00 0.00 0.00 68 1015.4
20260508201803 55 0 0.0 0.0 0.00 0.00 0.00 63 1015.4
20260508200903 55 60 0.0 1.0 0.00 0.00 0.00 62 1015.6
20260508200003 56 97 0.0 1.0 0.00 0.00 0.00 61 1015.5
20260508195403 56 160 1.0 2.0 0.00 0.00 0.00 61 1015.3
20260508194503 56 303 0.0 1.0 0.00 0.00 0.00 60 1015.3
20260508193615 57 315 0.0 1.0 0.00 0.00 0.00 60 1015.0
20260508192913 58 281 1.0 2.0 0.00 0.00 0.00 59 1015.0
20260508191803 58 283 1.0 2.0 0.00 0.00 0.00 59 1014.9
20260508190903 59 322 0.0 2.0 0.00 0.00 0.00 58 1014.7
20260508190003 60 189 2.0 4.0 0.00 0.00 0.00 56 1014.7
20260508185403 60 173 2.0 4.0 0.00 0.00 0.00 55 1014.6
20260508184504 61 203 2.0 4.0 0.00 0.00 0.00 57 1014.7
20260508183603 61 162 3.0 8.0 0.00 0.00 0.00 58 1014.4
20260508182913 62 182 4.0 8.0 0.00 0.00 0.00 57 1014.4
20260508182012 63 201 3.0 6.0 0.00 0.00 0.00 57 1014.6
20260508180903 63 146 3.0 6.0 0.00 0.00 0.00 57 1014.5
20260508180003 63 180 5.0 7.0 0.00 0.00 0.00 59 1014.5
20260508175403 63 199 4.0 6.0 0.00 0.00 0.00 59 1014.2
20260508174503 63 183 4.0 6.0 0.00 0.00 0.00 58 1014.4
20260508173603 64 154 4.0 8.0 0.00 0.00 0.00 54 1014.1
20260508172703 65 87 4.0 5.0 0.00 0.00 0.00 55 1014.0
20260508171803 64 204 4.0 5.0 0.00 0.00 0.00 55 1013.9
20260508170903 65 147 4.0 5.0 0.00 0.00 0.00 53 1014.2
20260508170003 65 213 5.0 8.0 0.00 0.00 0.00 53 1013.9
20260508165403 65 186 4.0 8.0 0.00 0.00 0.00 52 1014.2
20260508164503 65 232 4.0 6.0 0.00 0.00 0.00 52 1013.9
20260508163603 65 124 3.0 4.0 0.00 0.00 0.00 51 1014.0
20260508162703 65 192 5.0 7.0 0.00 0.00 0.00 51 1013.5
20260508161803 66 73 4.0 6.0 0.00 0.00 0.00 51 1013.7
20260508161113 67 230 4.0 6.0 0.00 0.00 0.00 50 1014.0
20260508160003 66 236 6.0 9.0 0.00 0.00 0.00 51 1013.8
20260508155403 66 214 5.0 9.0 0.00 0.00 0.00 50 1013.6
20260508154503 66 171 4.0 7.0 0.00 0.00 0.00 51 1013.7
20260508153603 67 196 4.0 9.0 0.00 0.00 0.00 51 1013.9
20260508152703 67 185 5.0 8.0 0.00 0.00 0.00 52 1014.1
20260508151803 67 207 6.0 8.0 0.00 0.00 0.00 50 1014.0
20260508150903 67 218 5.0 7.0 0.00 0.00 0.00 50 1014.0
20260508150004 66 145 5.0 7.0 0.00 0.00 0.00 50 1013.8
20260508145403 66 155 5.0 7.0 0.00 0.00 0.00 50 1013.9
20260508144503 66 153 6.0 8.0 0.00 0.00 0.00 46 1014.1
20260508143603 66 129 5.0 8.0 0.00 0.00 0.00 46 1013.8
20260508142703 66 165 5.0 8.0 0.00 0.00 0.00 46 1013.9
20260508141803 65 182 7.0 11.0 0.00 0.00 0.00 46 1014.1
20260508140903 65 178 8.0 11.0 0.00 0.00 0.00 46 1014.0
20260508140003 66 183 7.0 10.0 0.00 0.00 0.00 46 1014.1
20260508135403 66 186 7.0 10.0 0.00 0.00 0.00 46 1014.0
20260508134503 67 174 6.0 9.0 0.00 0.00 0.00 49 1013.9
20260508133603 66 146 7.0 9.0 0.00 0.00 0.00 45 1014.1
20260508132703 65 171 6.0 8.0 0.00 0.00 0.00 50 1013.9
20260508131803 65 168 6.0 12.0 0.00 0.00 0.00 47 1013.9
20260508130903 65 203 7.0 9.0 0.00 0.00 0.00 50 1013.9
20260508130003 65 217 7.0 9.0 0.00 0.00 0.00 47 1013.7
20260508125403 65 149 6.0 9.0 0.00 0.00 0.00 49 1013.7
20260508124503 65 170 6.0 8.0 0.00 0.00 0.00 50 1014.1
20260508123604 64 209 7.0 10.0 0.00 0.00 0.00 49 1013.9
20260508122703 64 250 9.0 12.0 0.00 0.00 0.00 50 1013.8
20260508121803 65 250 7.0 10.0 0.00 0.00 0.00 49 1013.7
20260508120903 65 187 5.0 10.0 0.00 0.00 0.00 50 1013.7
20260508120003 65 165 5.0 8.0 0.00 0.00 0.00 50 1013.8
20260508115403 64 183 6.0 11.0 0.00 0.00 0.00 51 1013.7
20260508114503 64 207 6.0 11.0 0.00 0.00 0.00 52 1013.7
20260508113603 63 242 7.0 11.0 0.00 0.00 0.00 55 1013.7
20260508112703 64 129 6.0 8.0 0.00 0.00 0.00 51 1013.8
20260508111803 64 183 6.0 8.0 0.00 0.00 0.00 52 1014.0
20260508110903 63 194 6.0 8.0 0.00 0.00 0.00 56 1013.8
20260508110004 63 192 7.0 11.0 0.00 0.00 0.00 58 1013.6
20260508105614 63 194 7.0 11.0 0.00 0.00 0.00 57 1013.8
20260508104503 63 168 6.0 8.0 0.00 0.00 0.00 55 1013.8
20260508103813 62 181 6.0 8.0 0.00 0.00 0.00 58 1013.8
20260508102703 62 188 6.0 8.0 0.00 0.00 0.00 57 1013.5
20260508101803 63 140 4.0 8.0 0.00 0.00 0.00 58 1013.6
20260508100903 62 173 5.0 8.0 0.00 0.00 0.00 60 1013.6
20260508100003 61 104 5.0 8.0 0.00 0.00 0.00 61 1013.7
20260508095403 61 178 5.0 8.0 0.00 0.00 0.00 62 1013.6
20260508094503 61 138 5.0 8.0 0.00 0.00 0.00 61 1013.5
20260508093604 61 181 4.0 6.0 0.00 0.00 0.00 63 1013.2
20260508092914 61 139 4.0 6.0 0.00 0.00 0.00 66 1013.3
20260508091803 61 106 4.0 6.0 0.00 0.00 0.00 68 1013.5
20260508090903 60 61 4.0 8.0 0.00 0.00 0.00 72 1013.4
20260508090003 58 121 4.0 6.0 0.00 0.00 0.00 70 1013.6
20260508085403 59 102 3.0 5.0 0.00 0.00 0.00 69 1013.6
20260508084713 60 60 2.0 5.0 0.00 0.00 0.00 71 1013.8
20260508083603 58 87 3.0 6.0 0.00 0.00 0.00 73 1013.5
20260508082913 58 76 2.0 4.0 0.00 0.00 0.00 76 1013.5
20260508081803 56 166 2.0 4.0 0.00 0.00 0.00 76 1013.4
20260508080903 56 83 2.0 3.0 0.00 0.00 0.00 76 1013.7
20260508080003 55 141 2.0 3.0 0.00 0.00 0.00 75 1013.6
20260508075404 56 137 2.0 4.0 0.00 0.00 0.00 75 1013.6
20260508074503 56 289 1.0 4.0 0.00 0.00 0.00 75 1013.4
20260508073603 56 13 1.0 2.0 0.00 0.00 0.00 75 1013.4
20260508072703 57 37 2.0 3.0 0.00 0.00 0.00 76 1013.2
20260508072012 57 41 2.0 3.0 0.00 0.00 0.00 79 1013.2
20260508071114 55 332 2.0 3.0 0.00 0.00 0.00 77 1013.4